sat.trackr.live / text

‹ back to catalog

STARLINK-4277

NORAD 53009 · 2022-076Z

PAYLOAD ACTIVE UNKNOWN

§ Identity

Operator
Country
US
Launch date
2022-07-07
Launch site
AFETR
Launch vehicle
Mass (kg)
RCS (m²)

Purposes: comms

External: N2YO · Heavens-Above · Gunter

§ Orbital elements

Epoch: 2026-05-25T03:30:20.073024Z

Period
95.44 min
Inclination
53.2147°
Eccentricity
0.0001310
Mean motion
15.08840536 rev/d
Perigee alt
538.8 km
Apogee alt
540.6 km
Semi-major
6,917.9 km
B*
3.6808e-5
RAAN
100.8929°
Arg perigee
85.9306°
Mean anomaly
274.1836°
Rev number
21,452

§ Raw data

STARLINK-42771 53009U 22076Z   26145.14606566  .00000298  00000+0  36808-4 0  99932 53009  53.2147 100.8929 0001310  85.9306 274.1836 15.08840536214521

JSON: /api/v1/satellites/53009 · /tle

For live sub-satellite position, see the globe view (requires WebGL).

§ Visibility from observer

Set your observer location to see the next 7 days of passes ≥ 10°. The values pass through the URL so the page stays shareable.

No JS? Fill the form by hand. The geolocation button needs JavaScript.